STARLINK-35414

Satellite information

Favourite Embed

Satellite Type and Status

PAYLOADIN ORBIT

Key statistics

Satellite STARLINK-35414 at a glance.

Uptime

32

Days in orbit

Revolutions

≈ 15.4

Per day

Orbit

SSO

Sun Synchronous Orbit

Inclination

97.6

Latest

Satellite identification and parameters

Extended collection of information and parameters for STARLINK-35414.

Object identification

Identified? True

Debris? False

Object name: STARLINK-35414

International designator: 2025-218H

Object number (NORAD): 65798

Object ID (CCSDS): 65798

Country: UNITED STATES OF AMERICA (US)

Current information (Y/N): Y

Orbital parameters

Period: 93.69 minutes

Inclination: 97.6028 deg

SMA: 6833.176 km

Apoapsis: 456.521 km

Periapsis: 453.561 km

RAAN: 161.8424 deg

Eccentricy: 0.00021656

Argument of periapsis: 78.016 deg

Mean anomaly: 105.7597 deg

Mean motion: 15.36982237 rev/day

Mean motion (dot): -0.02427396 rev/day2

B* drag term: -0.075726229 1/REarth

Two-line elements (TLE)

Creation date: Oct. 28, 2025, 2:18 a.m.

Reference frame: TEME

Reference center: EARTH

Epoch: Oct. 27, 2025, 8 p.m. UTC

TLE line 0: 0 STARLINK-35414

TLE line 1: 1 65798U 25218H 25300.83334491 -.02427396 00000-0 -75726-1 0 9991

TLE line 2: 2 65798 97.6028 161.8424 0002166 78.0160 105.7597 15.36982237 6086

Live tracking on map

Real-time ground track for satellite STARLINK-35414.

In-orbit conjunctions

There are no conjunctions computed for STARLINK-35414, at the moment. Check back to stay up to date, as we update our databases every day.

Go to all conjunctions

Associated space launch

A batch of 24 satellites for the Starlink mega-constellation - SpaceX's project for space-based Internet communication system.

STARLINK-35414 was lifted into orbit during the mission ‘Falcon 9 Block 5 | Starlink Group 17-11’, on board a Falcon 9 space rocket.

The launch took place on Sept. 26, 2025, 4:26 a.m. from Space Launch Complex 4E.

For more information about the launch, click the button.

Launch to space Falcon 9 Block 5 | Starlink Group 17-11
Falcon 9 Block 5 | Starlink Group 17-11

Agency: SpaceX

Status: Launch Successful

Launch date: Sept. 26, 2025, 4:26 a.m. UTC

Rocket: Falcon 9

Launch pad: Space Launch Complex 4E

Location: Vandenberg SFB, CA, USA

...

Latest news about this satellite

News about space launch
Live coverage: SpaceX to launch 24 Starlink satellites on Falcon 9 rocket from Vandenberg

The Starlink 17-11 mission includes the 475th launch of a flight-proven booster. SpaceX is targeting liftoff from pad 4E at Vandenberg Space Force Base at 9:17 p.m. PDT (12:17 a.m. EDT / 0417 UTC).

News about space launch
Launch Roundup: Kuiper, Starlink, IMAP headline launch manifest

A busy slate of launches is planned for the last full week of September, including… The post Launch Roundup: Kuiper, Starlink, IMAP headline launch manifest appeared first on NASASpaceFlight.com.


Newsletter sign-up

Weekly statistics, charts and insights to help you stay on top of the space industry.